Other Public Products
Issued by NWS Grand Forks, ND

Home | Current Version | Previous Version | Graphics & Text | Print | Product List | Glossary On
Versions: 1 2 3 4 5 6 7 8 9 10 11 12 13 14 15 16 17 18 19 20 21 22 23 24 25 26 27 28 29 30 31 32 33 34 35 36 37 38 39 40 41 42 43 44 45 46 47 48 49 50
856
FPUS83 KFGF 160631
OPUFGF
PRAIRIE TO PINES WEATHER ROUNDUP
NATIONAL WEATHER SERVICE EASTERN NORTH DAKOTA/GRAND FORKS ND
100 AM CDT WED AUG 16 2017

 **SATELLITE DATA USED TO AUGMENT SKY COVER AT AUTOMATED STATIONS**
 *****  WEATHER ACROSS EASTERN NORTH DAKOTA  *****

CITY           SKY/WX    TMP DP  RH WIND       PRES   REMARKS
GRAND FORKS    LGT RAIN  69  62  78 SE7       29.88S
6HR MIN TEMP:  68; 6HR MAX TEMP:  72; 6HR PCP: TRACE;

GRAND FORKS AF LGT RAIN  65  62  92 E5        29.89S
GRAND CITY NWS NOT AVBL
BUXTON           N/A     65  64  96 E2          N/A
DEVILS LAKE    RAIN      61  60  97 E10       29.88S FOG
6HR MIN TEMP:  61; 6HR MAX TEMP:  64; 6HR PCP:  0.48;

FARGO          CLOUDY    68  60  75 SE7       29.87S
6HR MIN TEMP:  68; 6HR MAX TEMP:  73;

WAHPETON ARPT  CLOUDY    63  57  82 SE6       29.88R
$$

 *****  WEATHER ACROSS CENTRAL AND WESTERN NORTH DAKOTA  *****

CITY           SKY/WX    TMP DP  RH WIND       PRES   REMARKS
JAMESTOWN      MOCLDY    64  61  90 SE14      29.83R
6HR MIN TEMP:  64; 6HR MAX TEMP:  67; 6HR PCP:  0.06;

BISMARCK       CLOUDY    65  62  90 NW7       29.86R
6HR MIN TEMP:  64; 6HR MAX TEMP:  65; 6HR PCP:  0.05;

MINOT          FOG       57  56  96 CALM      29.88S VSB 1/4
6HR MIN TEMP:  59; 6HR MAX TEMP:  66;

MINOT AFB      FOG       55  55 100 CALM      29.87S VSB 1/2
6HR MIN TEMP:  57; 6HR MAX TEMP:  66;

GARRISON         N/A     57  57 100 NW5       29.88R
6HR MIN TEMP:  56; 6HR MAX TEMP:  63;

WILLISTON      FAIR      61  58  90 CALM      29.89S
6HR MIN TEMP:  60; 6HR MAX TEMP:  75;

DICKINSON      CLOUDY    60  60 100 N3        29.91R
6HR MIN TEMP:  60; 6HR MAX TEMP:  64; 6HR PCP:  0.01;

HETTINGER      CLOUDY    61  59  93 N3        29.93R
6HR MIN TEMP:  61; 6HR MAX TEMP:  68;

$$

 *****  OTHER OBSERVATIONS NORTHEAST NORTH DAKOTA  *****

CITY           SKY/WX    TMP DP  RH WIND       PRES   REMARKS
WALHALLA       LGT RAIN  61  63 100 NE3       29.91S
LANGDON        CLOUDY    61  61 100 E5        29.91F
CAVALIER       LGT RAIN  63  63 100 E5        29.90F
GRAFTON        MOCLDY    63  63 100 N6        29.91F
CANDO          MOCLDY    61  61 100 E9        29.90S FOG
FORT TOTTEN      N/A     61  60  98 E7        29.95S
ROLLA          CLOUDY    61  61 100 E7        29.91R FOG
RUGBY          CLOUDY    63  63 100 NE7       29.87S
 ***** THE ABOVE OBSERVATIONS ARE NON NWS ARE NOT QUALITY
        CONTROLLED AND MAY MIS-REPORT RAIN FOR SNOW...
$$

 *****  OTHER OBSERVATIONS SOUTHEAST NORTH DAKOTA *****

CITY           SKY/WX    TMP DP  RH WIND       PRES   REMARKS
COOPERSTOWN    CLOUDY    63  63 100 SE8       29.87R
VALLEY CITY      N/A     64  64 100 SE12      29.87R
OAKES          NOT AVBL
GWINNER        CLOUDY    64  63  94 CALM      29.87R
SHEYENNE NWR     N/A     65  63  92 SE7       29.95S
BUFFALO          N/A     63  59  88 W8          N/A
WYNDMERE       NOT AVBL
 ***** THE ABOVE OBSERVATIONS ARE NON NWS ARE NOT QUALITY
       CONTROLLED AND MAY MIS-REPORT RAIN FOR SNOW...
$$

  *****  WEATHER ACROSS NORTHERN MINNESOTA  *****

CITY           SKY/WX    TMP DP  RH WIND       PRES   REMARKS
FLAG ISLAND    CLOUDY    72  63  73 CALM      29.91S
WARROAD        MOCLDY    64  63  94 CALM      29.94S
ROSEAU         FAIR      66  61  82 CALM      29.93S
HALLOCK        RAIN      64  63  94 N3        29.92S
THF RVR FALLS  CLOUDY    67  59  75 E5        29.93R
6HR MIN TEMP:  66; 6HR MAX TEMP:  72;

HALSTAD          N/A     65  61  86 SE5         N/A
FOSSTON        MOCLDY    64  57  77 SE5       29.92S
BAUDETTE       MOCLDY    66  60  81 S5        29.94S
6HR MIN TEMP:  64; 6HR MAX TEMP:  74;

WASKISH        FAIR      64  61  88 SE6       29.95S
CROOKSTON      CLOUDY    68  59  73 SE3       29.91R
$$
  *****  WEATHER ACROSS CENTRAL AND WEST MINNESOTA  *****

CITY           SKY/WX    TMP DP  RH WIND       PRES   REMARKS
BEMIDJI        MOCLDY    66  60  81 SE9       29.93F
PARK RAPIDS    MOCLDY    67  58  72 SE8       29.93S
6HR MIN TEMP:  66; 6HR MAX TEMP:  73;

WADENA         CLOUDY    63  57  82 E6        29.92S
DETROIT LAKES  FAIR      64  57  77 SE10G16   29.92S
MOORHEAD       FAIR      66  59  77 SE5       29.89R
FERGUS FALLS   CLOUDY    66  59  77 SE9       29.90R
ELBOW LAKE     FAIR      64  60  86 E8        29.90R
6HR MIN TEMP:  63; 6HR MAX TEMP:  70;

MORRIS MN      FAIR      64  61  88 SE9       29.89R
STAPLES        FAIR      63  55  77 SE3       29.93S
WHEATON        MOCLDY    63  61  94 CALM      29.90R
$$
  *****  WEATHER ELSEWHERE ACROSS MINNESOTA  *****

CITY           SKY/WX    TMP DP  RH WIND       PRES   REMARKS
DULUTH         FAIR      57  56  96 E7        30.02R
6HR MIN TEMP:  57; 6HR MAX TEMP:  66;

INTRNTL FALLS  FAIR      66  58  75 VRB5      29.97R
6HR MIN TEMP:  66; 6HR MAX TEMP:  74;

ELY            FAIR      50  46  87 CALM      30.03S
CLOQUET        FAIR      57  55  94 E6        30.01S
BRAINERD       FAIR      64  57  78 SE7       29.95S
6HR MIN TEMP:  61; 6HR MAX TEMP:  71;

HIBBING        FAIR      52  50  93 SE3       30.01S
6HR MIN TEMP:  52; 6HR MAX TEMP:  70;

ALEXANDRIA     MOCLDY    64  59  83 SE10      29.92F
6HR MIN TEMP:  63; 6HR MAX TEMP:  69;

SAINT CLOUD    FAIR      63  59  87 E6        29.94S
6HR MIN TEMP:  62; 6HR MAX TEMP:  72;

MINNEAPOLIS    CLOUDY    67  60  78 E7        29.94S
6HR MIN TEMP:  67; 6HR MAX TEMP:  73;

$$

  *****  WEATHER ACROSS SOUTH DAKOTA  *****

CITY           SKY/WX    TMP DP  RH WIND       PRES   REMARKS
SIOUX FALLS    CLOUDY    67  66  97 SE6       29.85S
6HR MIN TEMP:  66; 6HR MAX TEMP:  68; 6HR PCP: TRACE;

BROOKINGS      CLOUDY    65  63  93 SE9       29.87R
WATERTOWN      CLOUDY    64  63  96 SE8       29.86R
6HR MIN TEMP:  63; 6HR MAX TEMP:  68;

HURON          CLOUDY    66  65  96 SE8       29.82F
6HR MIN TEMP:  66; 6HR MAX TEMP:  71;

SISSETON         N/A     65  63  93 S5        29.87R
ABERDEEN       CLOUDY    65  64  97 S7        29.84R
6HR MIN TEMP:  65; 6HR MAX TEMP:  73; 6HR PCP:  0.04;

MITCHELL       CLOUDY    67  65  93 SE7       29.84S
PIERRE         LGT RAIN  67  65  93 E6        29.81F
6HR MIN TEMP:  67; 6HR MAX TEMP:  74; 6HR PCP:  0.09;

MOBRIDGE       CLOUDY    66  64  93 N8        29.81S
RAPID CITY     FAIR      62  55  77 N10       29.94R
6HR MIN TEMP:  62; 6HR MAX TEMP:  70;

$$

  *****  SOME WEATHER IN NEARBY STATES *****

CITY           SKY/WX    TMP DP  RH WIND       PRES   REMARKS
GLASGOW MT     FAIR      63  39  41 E13       29.89S
6HR MIN TEMP:  63; 6HR MAX TEMP:  81;

GREAT FALLS MT FAIR      60  30  32 NE9       29.92S
6HR MIN TEMP:  59; 6HR MAX TEMP:  81;

CHEYENNE WY    FAIR      54  46  74 W9        30.07F
6HR MIN TEMP:  54; 6HR MAX TEMP:  64; 6HR PCP:  0.08;

SCOTTSBLUFF NE FAIR      61  56  83 NW3       29.98R
6HR MIN TEMP:  60; 6HR MAX TEMP:  67; 6HR PCP:  0.07;

OMAHA NE       MOCLDY    70  65  84 E6        29.85F
6HR MIN TEMP:  69; 6HR MAX TEMP:  83; 6HR PCP:  0.24;

DES MOINES IA  CLOUDY    70  68  93 E9        29.88F
6HR MIN TEMP:  70; 6HR MAX TEMP:  76;

DAVENPORT IA   FAIR      69  66  90 E9        29.97F
6HR MIN TEMP:  68; 6HR MAX TEMP:  75;

CHICAGO IL     FAIR      69  62  78 NE5       30.00S
6HR MIN TEMP:  69; 6HR MAX TEMP:  73;

EAU CLAIRE WI  FAIR      66  57  72 SE8       29.98R
6HR MIN TEMP:  59; 6HR MAX TEMP:  73;

LA CROSSE WI   FAIR      68  63  84 E6        29.96S
6HR MIN TEMP:  68; 6HR MAX TEMP:  75;

$$

  *****  SOME NATIONAL WEATHER *****

CITY           SKY/WX    TMP DP  RH WIND       PRES   REMARKS
LA GUARDIA NY  MOCLDY    72  71  97 S5        29.90S



USA.gov is the U.S. government's official web portal to all federal, state and local government web resources and services.